| Date | Time | Temp. (oF) | Dew Point (oF) | Rel. Hum. (%) | Press. (in.) | Wind Dir. | Wind Speed (mph) | Hourly Rainfall (in.) |
|
|---|---|---|---|---|---|---|---|---|---|
| 1 | 10/02 | 00:00 | 56 | 50 | 83 | 30.06 | ENE | 8 | 0.00 |
| 2 | 10/01 | 23:00 | 56 | 52 | 89 | 30.06 | NE | 3 | 0.00 |
| 3 | 10/01 | 22:00 | 56 | 52 | 89 | 30.06 | NE | 6 | 0.00 |
| 4 | 10/01 | 21:00 | 56 | 52 | 89 | 30.05 | NE | 5 | 0.00 |
| 5 | 10/01 | 20:00 | 56 | 52 | 89 | 30.04 | N | 5 | 0.01 |
| 6 | 10/01 | 19:00 | 56 | 52 | 89 | 30.04 | NE | 1 | 0.00 |
| 7 | 10/01 | 18:00 | 56 | 52 | 89 | 30.01 | ENE | 4 | 0.01 |
| 8 | 10/01 | 17:00 | 56 | 52 | 89 | 30.00 | E | 3 | 0.01 |
| 9 | 10/01 | 16:00 | 56 | 52 | 89 | 29.99 | ENE | 4 | 0.07 |
| 10 | 10/01 | 15:00 | 57 | 53 | 87 | 30.00 | ENE | 5 | 0.02 |
| 11 | 10/01 | 14:00 | 57 | 53 | 87 | 30.01 | NE | 5 | 0.01 |
| 12 | 10/01 | 13:00 | 56 | 52 | 87 | 30.00 | NE | 5 | 0.01 |
| 13 | 10/01 | 12:00 | 56 | 52 | 87 | 30.01 | NNE | 5 | 0.05 |
| 14 | 10/01 | 11:00 | 56 | 50 | 83 | 30.01 | NNE | 5 | 0.03 |
| 15 | 10/01 | 10:00 | 55 | 50 | 84 | 29.99 | NE | 4 | 0.00 |
| 16 | 10/01 | 09:00 | 54 | 50 | 88 | 29.98 | E | 4 | 0.00 |
| 17 | 10/01 | 08:00 | 54 | 50 | 89 | 29.98 | WNW | 0 | 0.01 |
| 18 | 10/01 | 07:00 | 54 | 50 | 89 | 29.96 | NNE | 2 | 0.02 |
| 19 | 10/01 | 06:00 | 55 | 51 | 88 | 29.94 | ENE | 4 | 0.01 |
| 20 | 10/01 | 05:00 | 55 | 51 | 88 | 29.93 | N | 4 | 0.00 |
| 21 | 10/01 | 04:00 | 55 | 51 | 89 | 29.92 | NNE | 3 | 0.02 |
| 22 | 10/01 | 03:00 | 56 | 52 | 88 | 29.92 | NE | 5 | 0.02 |
| 23 | 10/01 | 02:00 | 57 | 52 | 84 | 29.92 | NE | 7 | 0.00 |
| 24 | 10/01 | 01:00 | 58 | 52 | 82 | 29.91 | N | 1 | 0.00 |